Location: Kellogg
(38.0159°N, 90.0546°W)
Time: 21:28:18
(UTC+00:00)

Transit 4A - Pass Details

Date: 12 September 2024
Orbit: 864 x 978 km, 66.8° (Epoch: 12 October)

Event Time Altitude Azimuth Distance (km) Brightness Sun altitude
Rises 18:30:07 0° 332° (NNW) 3,605 10.7 54.9°
Reaches altitude 10° 18:32:38 10° 333° (NNW) 2,673 10.2 54.8°
Maximum altitude 18:38:55 84° 63° (ENE) 973 9.0 54.4°
Drops below altitude 10° 18:45:17 10° 151° (SSE) 2,711 10.8 54.0°
Sets 18:47:51 0° 152° (SSE) 3,660 11.3 53.8°
